STARLINK-3954 (52558 NORAD) Tracking and Keplerian Element Data

This shows tracking and keplerian element data for the satellite.

Feedback or suggestion? Click here.




ElementValue
Catalog52558
NameSTARLINK-3954
Epoch Orbit986
Epoch Day193.25001157
Epoch Year2022
RAAN0.6957
Inclination53.2175
Eccentricity0.0001587
Argument of Perigee36.4844
Mean Anonmoly26.9718
Mean Motion15.43851541
Decay Rate-0.01055087
L11 52558U 22051AB 22193.25001157 -.01055087 00000+0 -25255-1 0 9990
L22 52558 53.2175 0.6957 0001587 36.4844 26.9718 15.43851541 9860

Live tracking and technical data element details for STARLINK-3954 (NORAD 52558). STARLINK-3954 can be tracked NOW for your location showing map with azimuth and elevation plus other details from your city location.

Track the satellite on the map from your city or location and see movement details for azimuth, elevation, latitude, longitude, range, height, and movement on the map or in text.







IsCatalogInMostPopularTable: catalog: 52558, numindb: 9
Update: records affected: 1



GetName: 52558 STARLINK-3954

Hit Count: updated at: Sun, 14 Aug 2022 00:05:53 GMT